Regional Weather Roundup
Issued by NWS

Home | Current Version | Previous Version | Text Only | Print | Product List | Glossary Off
Versions: 1 2 3 4 5 6 7 8 9 10 11 12 13 14 15 16 17 18 19 20 21 22 23 24 25 26 27 28 29 30 31 32 33 34 35 36 37 38 39 40 41 42 43 44 45 46 47 48 49 50

000
ASUS45 KBOI 030610
RWRID
WEATHER ROUNDUP FOR IDAHO
NATIONAL WEATHER SERVICE BOISE ID
1100 PM MST MON MAR 02 2015

NOTE: "FAIR" INDICATES FEW OR NO CLOUDS BELOW 12000 FEET
WITH NO SIGNIFICANT WEATHER AND/OR OBSTRUCTIONS TO VISIBILITY

IDZ012-014-030700-
SOUTHWEST IDAHO


CITY           SKY/WX    TMP DP  RH WIND       PRES   REMARKS
BOISE          CLOUDY    37  24  59 W12       29.82R WCI  29
CALDWELL       FAIR      37  19  48 NW24      29.87R WCI  26
MOUNTAIN HOME  CLOUDY    38  26  63 NW24G31   29.80R WCI  27
$$

IDZ016-017-030700-
SOUTHCENTRAL IDAHO


CITY           SKY/WX    TMP DP  RH WIND       PRES   REMARKS
BURLEY         FAIR      34  20  56 SW17      29.72R WCI  23
JEROME         FAIR      35  18  49 SW17      29.73R WCI  25
TWIN FALLS     FAIR      35  20  54 SW16      29.75R WCI  25
$$

IDZ019>023-030700-
SOUTHEAST IDAHO


CITY           SKY/WX    TMP DP  RH WIND       PRES   REMARKS
IDAHO FALLS    FAIR      33  23  66 S13       29.66S WCI  24
POCATELLO      FAIR      33  19  56 SW10      29.70R WCI  25
REXBURG        CLOUDY    33  50 100 S7        29.65S WCI  27
$$

IDZ006-010-011-018-031-032-030700-
CENTRAL IDAHO MOUNTAINS


CITY           SKY/WX    TMP DP  RH WIND       PRES   REMARKS
MCCALL         CLOUDY    28  17  63 N7        29.77R WCI  21
HAILEY         CLOUDY    32  19  59 N5        29.66S WCI  27
STANLEY          N/A     27  16  63 NW3       29.69R
SALMON         CLOUDY    34  21  60 CALM      29.74R
CHALLIS        CLOUDY    32  21  64 N3        29.70R
$$

IDZ002-004-006-007-026-030700-
NORTHERN IDAHO


CITY           SKY/WX    TMP DP  RH WIND       PRES   REMARKS
LEWISTON       MOCLDY    34  33  96 W5        29.98R WCI  30
LOWELL           N/A     34  32  92 CALM      29.95R
COEUR D`ALENE  MOCLDY    30  16  55 N17       30.01R WCI  18
MULLAN PASS    CLOUDY    10   7  87 VRB5      29.82R WCI   2
$$



USA.gov is the U.S. government's official web portal to all federal, state and local government web resources and services.